Regional Weather Roundup
Issued by NWS

Home | Current Version | Previous Version | Text Only | Print | Product List | Glossary On
Versions: 1 2 3 4 5 6 7 8 9 10 11 12 13 14 15 16 17 18 19 20 21 22 23 24 25 26 27 28 29 30 31 32 33 34 35 36 37 38 39 40 41 42 43 44 45 46 47 48 49 50
000
ASUS44 KBMX 010310
RWRAL

ALABAMA REGIONAL WEATHER ROUNDUP
NATIONAL WEATHER SERVICE BIRMINGHAM AL
1000 PM CDT THU JUL 31 2014

NOTE: "FAIR" INDICATES FEW OR NO CLOUDS BELOW 12,000 FEET
WITH NO SIGNIFICANT WEATHER AND/OR OBSTRUCTIONS TO VISIBILITY.

THE REMARK "TC" DENOTES TEMPERATURE IN DEGREES CELSIUS.

ALZ001>011-014-016>018-020-010400-
NORTH ALABAMA

CITY           SKY/WX    TMP DP  RH WIND       PRES   REMARKS
MUSCLE SHOALS  MOCLDY    70  64  81 CALM      30.07R
HUNTSVILLE     PTCLDY    72  64  76 E3        30.06R
DECATUR        PTCLDY    63  61  93 SE3       30.07R
HALEYVILLE     FAIR      65  63  93 CALM      30.09S
GADSDEN        PTCLDY    72  66  83 E8        30.07R
$$

ALZ012-013-022-023-030>036-040>044-010400-
WEST CENTRAL ALABAMA

CITY           SKY/WX    TMP DP  RH WIND       PRES   REMARKS
TUSCALOOSA     MOCLDY    70  62  76 CALM      30.04R
$$

ALZ015-024>027-033>036-040>044-010400-
CENTRAL ALABAMA

CITY           SKY/WX    TMP DP  RH WIND       PRES   REMARKS
BIRMINGHAM     MOCLDY    73  65  75 CALM      30.07R
MONTGOMERY     MOCLDY    79  66  64 N5        30.02R
SHELBY CO ARPT CLOUDY    76  64  66 CALM      30.05R
MAXWELL AFB    NOT AVBL
GREENVILLE     FAIR      77  64  64 NW3       30.02R
$$

ALZ019-021-028-029-037-038-045>048-010400-
EAST CENTRAL ALABAMA

CITY           SKY/WX    TMP DP  RH WIND       PRES   REMARKS
ANNISTON       MOCLDY    74  67  78 E9        30.07R
ALEXANDER CITY MOCLDY    78  66  66 NE7       30.06R
AUBURN         CLOUDY    73  64  73 NE10      30.07R
$$

ALZ051>064-010400-
SOUTHWEST ALABAMA

CITY           SKY/WX    TMP DP  RH WIND       PRES   REMARKS
MOBILE         PTCLDY    72  66  81 CALM      30.01S
BROOKLEY FIELD MOCLDY    73  67  81 CALM      30.01R
EVERGREEN      MOCLDY    75  65  70 NW3       30.02R
$$

ALZ049-050-065>069-010400-
SOUTHEAST ALABAMA

CITY           SKY/WX    TMP DP  RH WIND       PRES   REMARKS
DOTHAN         PTCLDY    75  65  70 CALM      30.04R
OZARK          NOT AVBL
TROY           MOCLDY    73  67  81 CALM      30.01S
EUFAULA        FAIR      74  68  81 CALM      29.99S
$$



USA.gov is the U.S. government's official web portal to all federal, state and local government web resources and services.